TVF90KB LFMT-LFPO

Flight info

Callsign TVF90KB
Flight time 1h 6m
Altitude 34000
Route NG DCT MOLEN DCT MTL DCT ETREK DCT MADOT DCT MOPEM DCT PIBAT
Aircraft B738/M-SDE2E3FGHIRWXY/LB1

Departure

Time 2026-04-20 12:03
Airport Montpellier-Méditerranée Airport (LFMT)

Arrival

Time 2026-04-20 13:10
Airport Paris-Orly Airport (LFPO)
Time Latitude Longitude Altitude Speed Heading
2026-04-20 11:39 43.57975 3.95945 21 ft 0 kts 207°
2026-04-20 11:54 43.57984 3.95951 21 ft 4 kts 202°
2026-04-20 11:54 43.58009 3.95959 22 ft 4 kts 174°
2026-04-20 11:55 43.58034 3.95948 19 ft 4 kts 141°
2026-04-20 11:55 43.58050 3.95921 19 ft 4 kts 109°
2026-04-20 11:55 43.58053 3.95911 18 ft 1 kts 102°
2026-04-20 11:57 43.58052 3.95913 20 ft 2 kts 102°
2026-04-20 11:57 43.58041 3.95971 20 ft 9 kts 110°
2026-04-20 11:57 43.58010 3.96048 19 ft 9 kts 122°
2026-04-20 11:57 43.57973 3.96129 18 ft 11 kts 113°
2026-04-20 11:58 43.57998 3.96221 18 ft 11 kts 40°
2026-04-20 11:58 43.58040 3.96303 18 ft 12 kts 101°
2026-04-20 11:58 43.57993 3.96399 17 ft 13 kts 127°
2026-04-20 11:58 43.57941 3.96505 17 ft 14 kts 124°
2026-04-20 11:59 43.57879 3.96633 14 ft 17 kts 124°
2026-04-20 11:59 43.57813 3.96767 16 ft 16 kts 124°
2026-04-20 11:59 43.57749 3.96897 14 ft 17 kts 124°
2026-04-20 11:59 43.57681 3.97021 18 ft 16 kts 126°
2026-04-20 12:00 43.57618 3.97146 19 ft 15 kts 123°
2026-04-20 12:00 43.57557 3.97268 21 ft 15 kts 122°
2026-04-20 12:00 43.57497 3.97385 22 ft 15 kts 124°
2026-04-20 12:00 43.57433 3.97515 20 ft 18 kts 124°
2026-04-20 12:01 43.57363 3.97656 20 ft 18 kts 124°
2026-04-20 12:01 43.57288 3.97808 16 ft 20 kts 124°
2026-04-20 12:01 43.57207 3.97959 18 ft 17 kts 127°
2026-04-20 12:01 43.57188 3.98100 18 ft 8 kts 67°
2026-04-20 12:02 43.57224 3.98151 19 ft 8 kts 31°
2026-04-20 12:02 43.57276 3.98169 19 ft 8 kts 360°
2026-04-20 12:02 43.57321 3.98136 20 ft 7 kts 304°
2026-04-20 12:02 43.57326 3.98124 19 ft 0 kts 301°
2026-04-20 12:03 43.57369 3.98036 20 ft 40 kts 305°
2026-04-20 12:03 43.57538 3.97700 21 ft 88 kts 304°
2026-04-20 12:03 43.58019 3.96750 21 ft 150 kts 305°
2026-04-20 12:03 43.58902 3.94993 683 ft 172 kts 307°
2026-04-20 12:04 43.59515 3.94210 1018 ft 186 kts 332°
2026-04-20 12:04 43.60790 3.93933 1831 ft 187 kts 11°
2026-04-20 12:04 43.61943 3.94792 2596 ft 203 kts 50°
2026-04-20 12:04 43.62721 3.96547 2944 ft 232 kts 58°
2026-04-20 12:05 43.63635 3.98511 3404 ft 251 kts 56°
2026-04-20 12:05 43.64652 4.00605 3820 ft 269 kts 54°
2026-04-20 12:05 43.65720 4.02769 4683 ft 273 kts 53°
2026-04-20 12:05 43.66817 4.04921 5596 ft 275 kts 51°
2026-04-20 12:06 43.67939 4.07037 6456 ft 278 kts 50°
2026-04-20 12:06 43.69100 4.09210 7231 ft 284 kts 50°
2026-04-20 12:06 43.70282 4.11422 8046 ft 288 kts 50°
2026-04-20 12:06 43.71480 4.13670 8864 ft 292 kts 50°
2026-04-20 12:07 43.72694 4.15952 9672 ft 296 kts 50°
2026-04-20 12:07 43.73925 4.18271 10351 ft 305 kts 50°
2026-04-20 12:07 43.75232 4.20729 10573 ft 329 kts 50°
2026-04-20 12:07 43.76639 4.23381 10761 ft 352 kts 50°
2026-04-20 12:08 43.78134 4.26210 10932 ft 373 kts 51°
2026-04-20 12:08 43.79669 4.29126 11339 ft 384 kts 51°
2026-04-20 12:08 43.81253 4.32137 11978 ft 388 kts 51°
2026-04-20 12:08 43.82849 4.35172 12653 ft 391 kts 51°
2026-04-20 12:09 43.84466 4.38237 13277 ft 395 kts 50°
2026-04-20 12:09 43.86436 4.40867 13830 ft 394 kts 29°
2026-04-20 12:09 43.88903 4.42495 14426 ft 392 kts 18°
2026-04-20 12:09 43.91461 4.43842 15002 ft 395 kts 17°
2026-04-20 12:10 43.94020 4.45158 15552 ft 400 kts 17°
2026-04-20 12:10 43.96646 4.46525 16099 ft 403 kts 17°
2026-04-20 12:10 43.99286 4.47930 16644 ft 407 kts 18°
2026-04-20 12:10 44.01953 4.49369 17162 ft 411 kts 18°
2026-04-20 12:11 44.04600 4.50804 17709 ft 415 kts 18°
2026-04-20 12:11 44.07301 4.52264 18240 ft 418 kts 17°
2026-04-20 12:11 44.10037 4.53719 18685 ft 421 kts 17°
2026-04-20 12:11 44.12787 4.55172 19176 ft 423 kts 17°
2026-04-20 12:12 44.15551 4.56632 19663 ft 425 kts 17°
2026-04-20 12:12 44.18334 4.58106 20125 ft 428 kts 17°
2026-04-20 12:12 44.21096 4.59571 20575 ft 430 kts 16°
2026-04-20 12:12 44.23908 4.61067 21020 ft 433 kts 16°
2026-04-20 12:13 44.26737 4.62574 21448 ft 435 kts 16°
2026-04-20 12:13 44.29571 4.64086 21870 ft 437 kts 16°
2026-04-20 12:13 44.32419 4.65607 22279 ft 439 kts 16°
2026-04-20 12:13 44.35250 4.67122 22680 ft 442 kts 16°
2026-04-20 12:14 44.38142 4.68669 23067 ft 445 kts 16°
2026-04-20 12:14 44.41042 4.70223 23450 ft 447 kts 16°
2026-04-20 12:14 44.43955 4.71787 23785 ft 449 kts 16°
2026-04-20 12:14 44.46879 4.73358 24110 ft 451 kts 16°
2026-04-20 12:15 44.49816 4.74936 24411 ft 453 kts 16°
2026-04-20 12:15 44.52797 4.76402 24727 ft 451 kts
2026-04-20 12:15 44.55877 4.77179 25024 ft 446 kts 360°
2026-04-20 12:15 44.58924 4.77280 25334 ft 442 kts 351°
2026-04-20 12:16 44.61957 4.76739 25636 ft 439 kts 346°
2026-04-20 12:16 44.64981 4.76031 25919 ft 441 kts 345°
2026-04-20 12:16 44.68018 4.75311 26135 ft 444 kts 345°
2026-04-20 12:16 44.71077 4.74595 26389 ft 446 kts 346°
2026-04-20 12:17 44.74143 4.73892 26691 ft 446 kts 346°
2026-04-20 12:17 44.77222 4.73198 26969 ft 447 kts 346°
2026-04-20 12:17 44.80302 4.72510 27223 ft 449 kts 346°
2026-04-20 12:17 44.83351 4.71833 27432 ft 451 kts 346°
2026-04-20 12:18 44.86463 4.71141 27634 ft 452 kts 346°
2026-04-20 12:18 44.89587 4.70449 27873 ft 453 kts 346°
2026-04-20 12:18 44.92705 4.69756 28185 ft 453 kts 346°
2026-04-20 12:18 44.95817 4.69061 28560 ft 451 kts 346°
2026-04-20 12:19 44.98915 4.68369 28928 ft 450 kts 346°
2026-04-20 12:19 45.02008 4.67675 29251 ft 450 kts 346°
2026-04-20 12:19 45.05066 4.66989 29576 ft 449 kts 345°
2026-04-20 12:19 45.08153 4.66296 29928 ft 448 kts 346°
2026-04-20 12:20 45.11228 4.65606 30294 ft 446 kts 345°
2026-04-20 12:20 45.14296 4.64916 30599 ft 445 kts 345°
2026-04-20 12:20 45.17360 4.64226 30869 ft 445 kts 345°
2026-04-20 12:20 45.20422 4.63535 31167 ft 444 kts 345°
2026-04-20 12:21 45.23432 4.62849 31486 ft 442 kts 345°
2026-04-20 12:21 45.26467 4.62154 31745 ft 443 kts 345°
2026-04-20 12:21 45.29521 4.61452 31971 ft 444 kts 345°
2026-04-20 12:21 45.32561 4.60753 32368 ft 440 kts 345°
2026-04-20 12:22 45.35580 4.60062 32767 ft 437 kts 345°
2026-04-20 12:22 45.38580 4.59372 32993 ft 438 kts 345°
2026-04-20 12:22 45.41597 4.58675 33208 ft 439 kts 345°
2026-04-20 12:22 45.44605 4.57981 33548 ft 437 kts 345°
2026-04-20 12:23 45.47590 4.57294 33967 ft 433 kts 345°
2026-04-20 12:23 45.50579 4.56604 34049 ft 437 kts 345°
2026-04-20 12:23 45.56568 4.55216 34057 ft 436 kts 345°
2026-04-20 12:24 45.62537 4.53835 34048 ft 433 kts 345°
2026-04-20 12:24 45.68477 4.52454 34058 ft 431 kts 345°
2026-04-20 12:25 45.74358 4.51086 34070 ft 430 kts 344°
2026-04-20 12:25 45.80275 4.49709 34057 ft 429 kts 344°
2026-04-20 12:26 45.86138 4.48343 34064 ft 429 kts 344°
2026-04-20 12:26 45.92026 4.46971 34052 ft 428 kts 343°
2026-04-20 12:27 45.97917 4.45593 34064 ft 428 kts 344°
2026-04-20 12:27 46.03769 4.44217 34061 ft 429 kts 343°
2026-04-20 12:28 46.09677 4.42824 34075 ft 431 kts 343°
2026-04-20 12:28 46.15608 4.41425 34065 ft 432 kts 343°
2026-04-20 12:29 46.21495 4.40035 34062 ft 433 kts 343°
2026-04-20 12:29 46.27448 4.38627 34053 ft 432 kts 343°
2026-04-20 12:30 46.33406 4.37215 34069 ft 433 kts 343°
2026-04-20 12:30 46.39325 4.35809 34058 ft 433 kts 343°
2026-04-20 12:31 46.45282 4.34391 34071 ft 433 kts 343°
2026-04-20 12:31 46.51202 4.32978 34081 ft 432 kts 343°
2026-04-20 12:32 46.57147 4.31556 34068 ft 432 kts 343°
2026-04-20 12:32 46.63084 4.30132 34063 ft 431 kts 343°
2026-04-20 12:33 46.69007 4.28709 34064 ft 431 kts 343°
2026-04-20 12:33 46.74906 4.27287 33941 ft 433 kts 343°
2026-04-20 12:34 46.77893 4.26565 33553 ft 434 kts 343°
2026-04-20 12:34 46.80834 4.25808 33178 ft 421 kts 339°
2026-04-20 12:34 46.83558 4.24496 32822 ft 404 kts 332°
2026-04-20 12:34 46.86101 4.22991 32473 ft 397 kts 330°
2026-04-20 12:35 46.88643 4.21425 32145 ft 395 kts 330°
2026-04-20 12:35 46.91160 4.19874 31848 ft 395 kts 330°
2026-04-20 12:35 46.93695 4.18332 31512 ft 394 kts 331°
2026-04-20 12:35 46.96237 4.16809 31174 ft 393 kts 331°
2026-04-20 12:36 46.98780 4.15302 30855 ft 392 kts 331°
2026-04-20 12:36 47.01283 4.13826 30538 ft 391 kts 332°
2026-04-20 12:36 47.03804 4.12344 30222 ft 389 kts 332°
2026-04-20 12:36 47.06318 4.10866 29875 ft 388 kts 332°
2026-04-20 12:37 47.08816 4.09397 29499 ft 386 kts 332°
2026-04-20 12:37 47.11315 4.07926 29144 ft 384 kts 332°
2026-04-20 12:37 47.13785 4.06471 28830 ft 381 kts 332°
2026-04-20 12:37 47.16237 4.05025 28548 ft 377 kts 332°
2026-04-20 12:38 47.18670 4.03588 28288 ft 374 kts 332°
2026-04-20 12:38 47.21046 4.02182 28109 ft 374 kts 332°
2026-04-20 12:38 47.25903 3.99301 27861 ft 375 kts 332°
2026-04-20 12:39 47.30718 3.96444 27233 ft 369 kts 332°
2026-04-20 12:39 47.33062 3.95053 26970 ft 366 kts 332°
2026-04-20 12:39 47.35414 3.93654 26650 ft 363 kts 332°
2026-04-20 12:40 47.37718 3.92282 26349 ft 360 kts 332°
2026-04-20 12:40 47.40048 3.90893 26048 ft 358 kts 332°
2026-04-20 12:40 47.42324 3.89535 25755 ft 356 kts 332°
2026-04-20 12:40 47.44620 3.88165 25460 ft 354 kts 332°
2026-04-20 12:41 47.46908 3.86797 25162 ft 353 kts 332°
2026-04-20 12:41 47.49187 3.85431 24807 ft 354 kts 332°
2026-04-20 12:41 47.51450 3.84074 24453 ft 355 kts 332°
2026-04-20 12:41 47.53749 3.82693 24204 ft 362 kts 332°
2026-04-20 12:42 47.56141 3.81249 23873 ft 373 kts 332°
2026-04-20 12:42 47.58531 3.79815 23502 ft 368 kts 333°
2026-04-20 12:42 47.60882 3.78407 23070 ft 362 kts 333°
2026-04-20 12:42 47.63197 3.77019 22659 ft 357 kts 333°
2026-04-20 12:43 47.65491 3.75639 22256 ft 354 kts 333°
2026-04-20 12:43 47.67748 3.74278 21870 ft 353 kts 333°
2026-04-20 12:43 47.70028 3.72900 21474 ft 352 kts 333°
2026-04-20 12:43 47.72304 3.71524 21092 ft 352 kts 333°
2026-04-20 12:44 47.74573 3.70151 20732 ft 351 kts 333°
2026-04-20 12:44 47.76831 3.68783 20347 ft 350 kts 333°
2026-04-20 12:44 47.79085 3.67418 19982 ft 349 kts 333°
2026-04-20 12:44 47.81310 3.66068 19619 ft 348 kts 333°
2026-04-20 12:45 47.83554 3.64705 19261 ft 347 kts 333°
2026-04-20 12:45 47.85788 3.63348 18898 ft 344 kts 334°
2026-04-20 12:45 47.87995 3.62006 18543 ft 340 kts 334°
2026-04-20 12:45 47.90171 3.60682 18175 ft 336 kts 334°
2026-04-20 12:46 47.92304 3.59384 18122 ft 326 kts 334°
2026-04-20 12:46 47.94404 3.58103 18123 ft 327 kts 334°
2026-04-20 12:46 47.96452 3.56719 18132 ft 325 kts 325°
2026-04-20 12:46 47.98152 3.54560 18141 ft 319 kts 312°
2026-04-20 12:47 47.99705 3.52181 18122 ft 320 kts 311°
2026-04-20 12:47 48.01254 3.49778 17961 ft 322 kts 311°
2026-04-20 12:47 48.02812 3.47365 17700 ft 321 kts 312°
2026-04-20 12:47 48.04563 3.45308 17365 ft 322 kts 327°
2026-04-20 12:48 48.06554 3.43766 16839 ft 327 kts 330°
2026-04-20 12:48 48.08601 3.42308 16316 ft 324 kts 331°
2026-04-20 12:48 48.10625 3.40886 15807 ft 318 kts 332°
2026-04-20 12:48 48.12616 3.39483 15324 ft 313 kts 332°
2026-04-20 12:49 48.14551 3.38112 15180 ft 305 kts 332°
2026-04-20 12:49 48.16473 3.36743 15139 ft 305 kts 331°
2026-04-20 12:49 48.18192 3.35030 15127 ft 298 kts 311°
2026-04-20 12:49 48.19316 3.32448 15143 ft 297 kts 295°
2026-04-20 12:50 48.20137 3.29598 15130 ft 298 kts 292°
2026-04-20 12:50 48.20910 3.26707 15122 ft 297 kts 292°
2026-04-20 12:50 48.21669 3.23828 15126 ft 297 kts 291°
2026-04-20 12:50 48.22417 3.20972 15133 ft 296 kts 291°
2026-04-20 12:51 48.23159 3.18125 15119 ft 289 kts 291°
2026-04-20 12:51 48.23881 3.15345 15119 ft 283 kts 291°
2026-04-20 12:51 48.24598 3.12582 15132 ft 284 kts 291°
2026-04-20 12:51 48.25074 3.10750 15136 ft 286 kts 291°
2026-04-20 12:52 48.25799 3.07955 15138 ft 287 kts 291°
2026-04-20 12:52 48.26761 3.04240 15138 ft 288 kts 291°
2026-04-20 12:52 48.27252 3.02343 15141 ft 288 kts 291°
2026-04-20 12:52 48.27968 2.99573 15131 ft 288 kts 291°
2026-04-20 12:53 48.28695 2.96761 15128 ft 288 kts 291°
2026-04-20 12:53 48.29421 2.93945 15133 ft 288 kts 291°
2026-04-20 12:53 48.30145 2.91139 15139 ft 287 kts 291°
2026-04-20 12:53 48.30868 2.88334 15138 ft 287 kts 291°
2026-04-20 12:54 48.31581 2.85567 15139 ft 288 kts 291°
2026-04-20 12:54 48.32320 2.82695 15145 ft 298 kts 291°
2026-04-20 12:54 48.33073 2.79767 15145 ft 301 kts 291°
2026-04-20 12:54 48.33825 2.76843 15115 ft 299 kts 291°
2026-04-20 12:55 48.34582 2.73896 14606 ft 303 kts 291°
2026-04-20 12:55 48.35337 2.70954 14123 ft 300 kts 291°
2026-04-20 12:55 48.36074 2.68075 13609 ft 296 kts 291°
2026-04-20 12:55 48.36812 2.65177 13068 ft 294 kts 291°
2026-04-20 12:56 48.37538 2.62312 12554 ft 292 kts 291°
2026-04-20 12:56 48.38255 2.59465 12041 ft 290 kts 291°
2026-04-20 12:56 48.38963 2.56627 11525 ft 289 kts 291°
2026-04-20 12:56 48.39666 2.53781 11028 ft 289 kts 291°
2026-04-20 12:57 48.40352 2.50973 10536 ft 289 kts 291°
2026-04-20 12:57 48.41039 2.48119 10051 ft 289 kts 291°
2026-04-20 12:57 48.41715 2.45271 9529 ft 288 kts 291°
2026-04-20 12:57 48.42380 2.42432 9001 ft 288 kts 291°
2026-04-20 12:58 48.43042 2.39582 8470 ft 287 kts 291°
2026-04-20 12:58 48.43709 2.36753 7951 ft 286 kts 291°
2026-04-20 12:58 48.44374 2.33959 7468 ft 287 kts 291°
2026-04-20 12:58 48.45040 2.31163 7208 ft 278 kts 291°
2026-04-20 12:59 48.45673 2.28484 7033 ft 265 kts 291°
2026-04-20 12:59 48.46265 2.25912 6821 ft 254 kts 290°
2026-04-20 12:59 48.46838 2.23421 6563 ft 248 kts 292°
2026-04-20 12:59 48.47390 2.20997 6291 ft 242 kts 291°
2026-04-20 13:00 48.47940 2.18630 6020 ft 237 kts 291°
2026-04-20 13:00 48.48471 2.16346 5532 ft 246 kts 293°
2026-04-20 13:00 48.49023 2.13857 5079 ft 251 kts 291°
2026-04-20 13:00 48.49560 2.11404 4990 ft 242 kts 292°
2026-04-20 13:01 48.50074 2.09005 4993 ft 240 kts 291°
2026-04-20 13:01 48.50609 2.06634 4991 ft 235 kts 291°
2026-04-20 13:01 48.51135 2.04326 4977 ft 238 kts 289°
2026-04-20 13:01 48.51668 2.01952 4985 ft 239 kts 291°
2026-04-20 13:02 48.52212 1.99582 4985 ft 239 kts 291°
2026-04-20 13:02 48.52755 1.97190 4989 ft 242 kts 291°
2026-04-20 13:02 48.53446 1.94899 4971 ft 237 kts 313°
2026-04-20 13:02 48.54728 1.93417 4743 ft 233 kts 342°
2026-04-20 13:03 48.56277 1.93213 4493 ft 220 kts 15°
2026-04-20 13:03 48.57646 1.94107 4263 ft 211 kts 30°
2026-04-20 13:03 48.58855 1.95293 4042 ft 203 kts 46°
2026-04-20 13:03 48.59632 1.96992 4003 ft 198 kts 58°
2026-04-20 13:04 48.60344 1.98766 3988 ft 195 kts 58°
2026-04-20 13:04 48.61017 2.00533 3987 ft 192 kts 60°
2026-04-20 13:04 48.61646 2.02310 4008 ft 192 kts 60°
2026-04-20 13:04 48.62303 2.04184 4026 ft 212 kts 61°
2026-04-20 13:05 48.62981 2.06120 4007 ft 202 kts 62°
2026-04-20 13:05 48.63633 2.07977 3779 ft 199 kts 61°
2026-04-20 13:05 48.64267 2.09781 3528 ft 189 kts 61°
2026-04-20 13:05 48.64865 2.11482 3302 ft 177 kts 61°
2026-04-20 13:06 48.65436 2.13104 3070 ft 170 kts 60°
2026-04-20 13:06 48.65984 2.14660 2840 ft 164 kts 60°
2026-04-20 13:06 48.66491 2.16098 2636 ft 152 kts 60°
2026-04-20 13:06 48.66962 2.17438 2487 ft 137 kts 60°
2026-04-20 13:07 48.67385 2.18640 2281 ft 127 kts 59°
2026-04-20 13:07 48.67805 2.19826 2118 ft 130 kts 60°
2026-04-20 13:07 48.68226 2.21023 1930 ft 126 kts 59°
2026-04-20 13:07 48.68621 2.22140 1774 ft 120 kts 60°
2026-04-20 13:08 48.69017 2.23270 1617 ft 122 kts 60°
2026-04-20 13:08 48.69423 2.24414 1490 ft 123 kts 59°
2026-04-20 13:08 48.69830 2.25537 1314 ft 120 kts 60°
2026-04-20 13:08 48.70232 2.26670 1122 ft 126 kts 60°
2026-04-20 13:09 48.70630 2.27862 943 ft 129 kts 59°
2026-04-20 13:09 48.71054 2.29038 745 ft 127 kts 60°
2026-04-20 13:09 48.71482 2.30242 622 ft 132 kts 61°
2026-04-20 13:09 48.71920 2.31456 432 ft 130 kts 62°
2026-04-20 13:10 48.72324 2.32615 300 ft 114 kts 61°
2026-04-20 13:10 48.72648 2.33521 296 ft 77 kts 63°
2026-04-20 13:10 48.72770 2.33998 293 ft 39 kts 84°
2026-04-20 13:10 48.72806 2.34375 296 ft 37 kts 81°
2026-04-20 13:11 48.72841 2.34750 292 ft 35 kts 81°
2026-04-20 13:11 48.72866 2.35047 295 ft 19 kts 80°
2026-04-20 13:11 48.72889 2.35251 292 ft 20 kts 80°
2026-04-20 13:11 48.72901 2.35395 292 ft 2 kts 89°
2026-04-20 13:12 48.72881 2.35416 293 ft 9 kts 155°
2026-04-20 13:12 48.72794 2.35457 293 ft 17 kts 163°
2026-04-20 13:12 48.72762 2.35588 291 ft 13 kts 71°
2026-04-20 13:12 48.72782 2.35693 294 ft 8 kts 75°
2026-04-20 13:13 48.72796 2.35770 293 ft 8 kts 69°
2026-04-20 13:13 48.72827 2.35822 294 ft 5 kts 44°
2026-04-20 13:13 48.72837 2.35838 294 ft 0 kts 45°